Wind_Speed
50 52 52 52 52 51 53 53 53 51 49 49 50 49 47 47 48 48 48 48 48 47 46 46 44 44 44 44 44 43 43 43 43 43 43 43 42 41 41 41 40 40 40
48 51 53 53 52 51 52 53 53 53 51 49 49 49 49 48 48 47 47 48 47 47 47 46 45 45 45 45 45 44 44 44 44 43 43 42 42 42 42 42 41 41 42
46 48 50 52 52 52 52 53 53 53 52 51 49 49 49 49 49 48 48 48 48 47 47 47 47 47 47 46 46 46 46 46 45 45 44 43 43 43 43 43 43 43 43
45 46 48 51 52 52 53 54 53 53 52 52 52 51 50 50 50 50 49 48 48 48 48 48 48 48 48 48 48 49 48 47 47 46 45 45 44 45 44 44 44 45 45
44 46 47 49 51 51 52 53 53 53 53 52 52 52 52 52 51 50 50 49 49 49 49 49 49 49 48 49 49 49 48 47 47 47 46 46 46 46 46 46 46 46 46
43 44 45 47 49 50 52 53 53 54 54 53 52 52 52 52 52 51 51 51 50 50 49 48 48 49 49 49 48 48 48 48 48 48 48 47 47 47 47 47 47 47 46
42 43 45 46 47 49 50 52 53 54 54 54 54 53 53 53 53 53 52 51 51 50 50 50 50 49 48 48 48 48 48 48 48 48 48 48 47 47 48 47 47 47 47
40 42 44 44 45 47 49 50 52 54 54 54 54 54 54 54 53 53 52 52 52 52 52 52 51 49 48 48 48 48 48 48 48 48 48 48 48 49 48 48 48 48 48
38 40 43 44 44 45 47 50 52 53 53 52 52 52 52 52 52 52 52 53 53 53 53 52 52 51 50 49 48 48 48 48 48 48 48 49 49 50 49 49 49 50 49
37 38 40 43 43 44 45 47 49 51 52 52 50 50 50 50 50 51 52 52 52 52 52 52 52 51 51 51 50 49 49 49 49 49 49 49 50 50 50 50 50 50 50
37 37 37 39 41 41 42 44 46 48 49 50 51 50 49 49 49 50 50 50 51 52 52 51 51 51 51 51 50 50 51 50 50 50 50 50 51 51 51 51 51 51 50
35 36 36 37 38 39 40 41 42 45 47 48 49 49 49 49 49 49 50 50 51 51 51 51 51 50 51 51 50 51 51 51 51 51 52 52 52 52 52 52 52 51 51
35 35 35 36 36 37 39 39 40 41 43 45 47 48 49 49 49 50 50 51 51 51 51 51 51 51 51 51 51 51 51 52 52 52 52 52 52 52 53 53 53 52 51
35 36 35 36 37 37 37 38 39 40 42 43 44 46 47 48 48 48 50 51 51 51 51 51 51 51 51 51 51 51 51 52 52 52 52 52 52 53 53 53 52 52 51
34 35 35 35 36 36 37 37 37 38 39 40 42 43 44 45 47 49 50 50 51 51 51 51 51 51 51 51 51 51 50 50 50 51 52 52 53 53 53 52 51 50 50
34 34 34 34 35 36 36 36 37 38 38 39 40 41 42 43 44 45 47 48 48 49 50 50 50 50 50 50 50 50 50 50 50 50 51 51 51 52 52 52 51 51 51
35 34 34 34 34 35 36 36 36 37 37 38 39 39 40 41 42 43 43 44 45 46 47 47 47 47 47 48 49 49 49 50 50 50 50 50 50 51 51 51 51 51 51
35 35 34 34 34 35 35 36 36 36 37 37 37 37 38 40 40 41 41 42 41 43 44 45 45 46 46 46 47 47 48 48 49 49 49 49 49 49 49 50 50 50 50
32 32 33 32 33 33 34 35 36 36 36 36 37 37 37 37 37 38 40 41 42 42 42 43 43 44 44 43 44 45 46 46 47 48 48 48 48 48 48 49 49 49 50
31 30 30 30 31 31 32 33 34 34 35 35 36 36 37 37 37 37 38 39 40 40 41 41 42 42 42 42 43 43 43 44 45 46 46 47 47 47 47 48 48 49 49
30 31 30 30 30 30 31 31 33 33 33 34 35 36 36 36 36 36 37 37 37 38 38 39 40 41 41 41 42 42 42 42 43 44 44 45 45 46 46 46 46 47 47
31 32 32 32 32 32 31 31 31 33 33 33 33 34 35 35 36 36 36 36 35 35 36 37 38 38 39 40 41 41 41 41 42 42 43 43 43 44 44 43 43 44 44
31 32 33 33 33 33 32 32 33 33 34 34 34 33 34 34 35 36 36 35 35 35 35 35 36 36 37 37 38 39 39 40 40 40 41 41 41 41 42 42 41 41 41
30 31 32 33 33 33 33 33 33 33 33 34 34 34 33 33 33 34 35 35 35 35 35 35 35 36 36 36 36 37 38 38 39 39 39 39 39 39 40 40 40 40 40
28 29 30 31 32 32 32 33 33 33 33 33 33 34 34 34 34 34 35 35 35 35 35 35 35 35 35 35 35 36 36 37 37 37 37 37 37 38 38 39 39 39 39
28 28 29 29 30 31 32 32 33 33 33 33 33 33 33 34 34 34 34 34 34 34 35 35 35 35 35 35 35 35 35 36 36 36 36 37 37 38 38 38 39 39 39
Wind_Direction
230 230 230 231 231 232 232 233 234 235 237 238 239 239 240 240 241 243 244 245 247 248 250 251 252 255 256 256 258 260 261 264 266 267 269 271 273 274 276 278 279 280 281
230 231 231 232 231 232 233 234 235 236 237 238 239 240 240 241 241 243 245 246 247 247 249 250 252 254 255 257 258 259 261 263 265 267 268 270 272 274 275 276 278 279 280
231 232 232 232 232 233 234 235 236 236 237 238 239 240 240 241 242 244 245 246 246 247 249 250 252 253 256 258 259 261 262 264 265 267 268 269 271 273 275 276 277 278 280
233 233 233 233 232 233 234 235 236 236 237 239 240 241 242 242 243 245 246 247 247 249 250 251 253 256 258 259 261 262 264 264 265 267 268 269 270 273 274 276 277 278 279
233 234 234 233 233 233 234 236 237 237 238 239 241 242 243 245 245 246 246 248 249 250 252 254 255 257 259 260 261 263 263 263 264 266 267 268 270 271 273 275 277 277 278
236 236 236 234 235 236 236 237 238 238 239 241 243 243 244 244 245 247 248 250 251 251 252 254 255 257 259 261 261 262 263 263 264 264 266 267 269 271 273 275 276 277 278
236 238 237 238 237 237 238 239 238 239 241 242 243 244 244 245 246 247 248 249 251 251 252 254 255 257 259 259 260 261 263 263 263 264 266 267 269 271 273 275 276 277 278
238 239 238 237 237 239 239 240 240 240 241 242 243 244 245 246 247 248 249 251 251 251 252 254 256 258 259 260 261 261 262 263 263 264 266 268 270 271 273 274 276 277 277
240 241 239 239 240 240 241 240 241 241 241 243 244 245 245 246 247 248 250 251 251 252 253 255 256 257 259 260 260 261 262 263 263 264 266 267 269 271 273 274 275 276 277
241 241 242 242 242 243 242 242 243 244 243 243 244 246 246 247 247 248 249 251 252 252 253 255 256 256 258 259 260 261 261 263 263 264 266 268 269 271 272 273 275 275 276
243 243 244 244 243 244 244 243 243 244 243 243 244 246 248 248 248 249 250 251 251 252 253 254 255 256 258 259 260 261 262 263 263 264 266 267 269 270 271 273 274 274 275
244 244 245 244 244 244 244 244 244 244 244 245 245 246 248 250 251 251 252 252 252 253 254 255 255 256 258 260 260 261 262 263 264 265 266 267 268 269 271 272 273 273 274
243 243 244 244 244 245 245 245 245 245 246 247 247 247 249 250 250 251 253 254 253 254 254 255 255 257 259 260 261 262 263 264 265 266 266 267 268 269 270 271 271 272 273
245 243 243 243 243 245 246 246 248 248 248 248 248 248 248 249 250 251 253 254 255 256 257 257 257 258 260 261 262 264 264 264 265 265 266 267 268 268 269 270 271 271 272
245 244 245 245 245 246 246 247 249 249 249 249 249 250 249 249 251 253 254 255 256 257 258 258 259 260 261 262 262 263 263 265 265 266 266 267 268 269 269 270 270 271 271
247 245 247 247 246 247 247 248 248 249 249 249 250 250 251 252 252 254 255 255 256 258 258 259 259 260 261 261 262 262 262 263 264 266 267 268 268 269 270 270 270 270 271
248 248 249 249 248 247 247 247 248 249 250 250 250 251 251 252 253 254 255 256 256 257 258 258 259 259 261 261 260 261 262 263 264 265 267 268 269 270 270 270 270 270 271
248 249 250 250 250 249 248 247 248 250 250 251 252 252 252 252 253 254 254 255 256 257 258 259 259 259 260 261 261 261 262 262 263 264 266 268 270 271 271 271 271 271 272
247 248 249 250 250 249 249 249 249 251 250 252 253 254 254 254 254 254 255 255 257 257 258 258 259 260 260 261 261 262 262 263 263 264 266 268 270 271 270 270 271 272 273
247 247 248 249 249 249 249 250 250 251 250 251 253 254 254 255 255 255 256 256 258 258 258 258 258 259 261 261 262 263 263 264 265 266 267 269 270 270 270 270 271 272 274
249 249 249 249 249 249 249 249 249 250 251 252 253 253 253 255 255 255 256 256 256 258 258 258 258 259 260 261 262 263 264 265 267 268 269 270 270 270 270 270 272 273 275
250 251 251 251 250 249 248 249 249 250 252 254 254 254 255 255 255 255 256 256 256 256 257 258 259 259 260 262 263 263 265 267 268 268 269 271 271 270 270 270 272 273 275
253 252 251 250 250 249 250 250 252 252 253 253 254 255 256 256 255 255 255 255 255 256 257 257 258 260 261 263 264 265 266 267 269 270 271 271 271 271 270 270 271 273 274
252 251 250 250 250 250 250 251 252 254 254 255 254 255 256 256 256 255 254 255 256 257 258 258 259 261 262 264 265 265 267 268 269 270 271 271 270 270 270 270 271 273 274
253 252 251 250 250 250 251 251 252 253 254 255 255 255 255 256 256 256 256 256 256 256 256 257 257 259 260 262 264 266 267 268 268 269 269 269 269 269 270 271 272 273 274
255 254 253 253 252 251 251 252 252 253 254 255 255 255 255 256 256 256 255 255 256 256 256 256 256 259 262 263 264 266 268 268 268 268 269 269 270 270 271 272 272 273 274
Height
5633 5639 5646 5652 5657 5663 5670 5675 5680 5686 5691 5696 5700 5705 5709 5713 5718 5722 5725 5729 5732 5736 5739 5742 5745 5746 5749 5751 5752 5753 5755 5755 5756 5757 5756 5756 5755 5754 5753 5752 5751 5750 5749
5623 5629 5635 5641 5647 5653 5659 5664 5669 5674 5679 5684 5688 5693 5698 5702 5706 5710 5714 5717 5721 5724 5727 5731 5733 5735 5737 5739 5741 5742 5743 5744 5745 5745 5745 5744 5744 5743 5742 5741 5740 5739 5737
5613 5619 5624 5630 5636 5641 5647 5653 5658 5662 5667 5672 5676 5680 5685 5690 5694 5698 5702 5706 5709 5713 5716 5719 5721 5723 5725 5727 5729 5730 5731 5732 5733 5733 5733 5733 5733 5732 5731 5730 5729 5727 5726
5604 5609 5613 5618 5624 5630 5635 5640 5645 5650 5655 5659 5664 5668 5672 5677 5681 5686 5690 5694 5697 5701 5704 5707 5709 5711 5713 5715 5716 5717 5718 5719 5720 5721 5721 5721 5721 5720 5719 5718 5717 5716 5715
5594 5599 5603 5608 5613 5618 5624 5628 5633 5638 5643 5647 5652 5656 5660 5664 5669 5673 5678 5681 5685 5689 5692 5695 5697 5699 5700 5702 5703 5705 5706 5707 5707 5708 5709 5709 5709 5708 5708 5707 5706 5704 5703
5585 5589 5593 5597 5602 5607 5612 5616 5621 5626 5630 5635 5640 5644 5648 5652 5656 5660 5664 5669 5673 5676 5680 5682 5684 5686 5688 5689 5691 5692 5693 5694 5695 5695 5696 5696 5696 5696 5695 5694 5693 5693 5692
5576 5580 5583 5587 5592 5596 5601 5605 5609 5614 5618 5623 5628 5632 5636 5640 5644 5648 5652 5656 5660 5664 5667 5669 5671 5673 5675 5676 5678 5679 5680 5680 5682 5683 5683 5684 5684 5684 5683 5682 5681 5679 5679
5566 5570 5573 5577 5581 5585 5589 5593 5597 5602 5606 5611 5615 5619 5623 5627 5631 5635 5639 5643 5647 5650 5653 5656 5658 5660 5662 5663 5665 5666 5667 5668 5669 5670 5671 5671 5671 5670 5670 5669 5668 5667 5666
5557 5560 5564 5567 5570 5574 5578 5582 5585 5590 5594 5599 5603 5607 5611 5615 5619 5622 5626 5629 5633 5637 5640 5642 5645 5647 5649 5650 5652 5653 5654 5655 5655 5656 5657 5657 5657 5657 5656 5655 5654 5653 5652
5548 5551 5554 5557 5560 5563 5567 5570 5574 5578 5582 5587 5591 5594 5598 5602 5606 5609 5612 5616 5620 5624 5626 5629 5631 5633 5635 5636 5638 5639 5641 5642 5642 5643 5643 5644 5643 5643 5642 5641 5640 5639 5638
5538 5541 5544 5547 5550 5553 5556 5560 5563 5567 5571 5574 5579 5582 5586 5590 5593 5596 5599 5602 5606 5609 5612 5614 5617 5619 5620 5622 5624 5626 5627 5628 5628 5629 5629 5630 5629 5629 5628 5627 5626 5625 5624
5529 5532 5535 5538 5540 5543 5546 5549 5552 5555 5559 5562 5566 5569 5573 5576 5580 5583 5586 5589 5591 5595 5597 5600 5602 5604 5606 5608 5609 5611 5612 5613 5614 5614 5615 5615 5615 5615 5614 5613 5612 5611 5610
5521 5523 5526 5528 5531 5533 5536 5538 5541 5544 5547 5550 5553 5557 5561 5563 5566 5569 5572 5574 5577 5580 5583 5585 5588 5590 5592 5593 5595 5596 5597 5598 5599 5600 5600 5601 5601 5600 5599 5598 5597 5596 5596
5511 5514 5516 5518 5521 5524 5526 5528 5531 5533 5536 5538 5541 5544 5547 5550 5553 5555 5558 5560 5563 5565 5568 5571 5573 5575 5577 5579 5580 5582 5582 5583 5584 5585 5586 5586 5586 5585 5585 5584 5583 5582 5582
5502 5504 5507 5509 5511 5513 5516 5518 5521 5523 5525 5527 5530 5532 5535 5538 5540 5542 5544 5547 5549 5552 5554 5556 5559 5561 5562 5564 5566 5567 5568 5569 5569 5570 5571 5571 5571 5570 5570 5570 5569 5568 5568
5493 5495 5497 5499 5501 5503 5506 5508 5510 5513 5514 5516 5519 5521 5523 5526 5527 5529 5531 5533 5535 5538 5540 5542 5544 5546 5548 5550 5551 5553 5554 5554 5555 5556 5556 5556 5556 5556 5556 5555 5554 5554 5554
5483 5485 5487 5489 5491 5493 5495 5498 5500 5502 5504 5506 5508 5510 5512 5514 5515 5517 5519 5520 5522 5524 5526 5528 5530 5532 5534 5535 5537 5538 5540 5541 5541 5542 5542 5542 5542 5541 5541 5540 5540 5539 5539
5474 5476 5478 5480 5481 5483 5485 5488 5490 5492 5494 5495 5496 5498 5500 5501 5503 5505 5507 5509 5510 5512 5513 5515 5517 5519 5520 5521 5523 5524 5526 5526 5527 5528 5528 5528 5528 5527 5527 5526 5525 5525 5524
5464 5466 5468 5470 5472 5473 5475 5478 5480 5481 5484 5485 5486 5488 5489 5490 5492 5493 5495 5497 5498 5500 5501 5503 5504 5506 5507 5508 5510 5511 5512 5512 5513 5513 5514 5514 5514 5513 5512 5512 5511 5511 5510
5455 5457 5459 5461 5462 5464 5466 5468 5470 5471 5473 5475 5476 5477 5478 5480 5481 5482 5483 5485 5486 5488 5489 5490 5492 5493 5495 5496 5497 5498 5498 5499 5499 5500 5500 5500 5499 5499 5498 5497 5497 5496 5495
5446 5448 5450 5452 5453 5455 5457 5458 5460 5461 5463 5464 5465 5466 5468 5469 5470 5471 5472 5473 5475 5476 5477 5478 5480 5481 5482 5483 5484 5485 5486 5486 5486 5486 5486 5486 5485 5485 5484 5483 5483 5482 5481
5437 5438 5440 5442 5444 5445 5447 5448 5450 5451 5452 5454 5455 5456 5456 5458 5459 5460 5461 5462 5463 5464 5465 5467 5468 5469 5470 5471 5472 5473 5473 5473 5473 5473 5473 5472 5471 5471 5470 5470 5469 5469 5468
5427 5429 5430 5432 5433 5435 5437 5438 5440 5441 5442 5443 5444 5445 5446 5447 5447 5448 5449 5451 5452 5453 5454 5456 5457 5458 5459 5459 5460 5460 5461 5461 5461 5460 5460 5459 5458 5457 5457 5457 5456 5456 5455
5418 5419 5420 5422 5423 5425 5426 5428 5429 5431 5432 5433 5434 5435 5435 5436 5437 5438 5439 5440 5441 5442 5444 5445 5446 5447 5447 5448 5448 5448 5448 5448 5448 5448 5447 5446 5445 5445 5445 5444 5444 5443 5442
5408 5409 5410 5412 5413 5415 5416 5418 5419 5421 5422 5423 5424 5425 5426 5426 5427 5428 5429 5429 5430 5431 5433 5434 5435 5435 5436 5436 5437 5437 5437 5437 5436 5436 5435 5434 5434 5433 5433 5432 5432 5431 5430
5399 5400 5401 5402 5403 5405 5406 5408 5409 5410 5412 5413 5414 5414 5415 5416 5417 5418 5418 5419 5420 5421 5422 5423 5424 5424 5425 5425 5425 5426 5425 5425 5424 5424 5423 5423 5423 5422 5421 5421 5420 5419 5419